Time,TemperatureF,DewpointF,PressureIn,WindDirection,WindDirectionDegrees,WindSpeedMPH,WindSpeedGustMPH,Humidity,HourlyPrecipIn,Conditions,Clouds,dailyrainin,SoftwareType,DateUTC
2013-03-09 00:00:00,32.7,25.7,30.40,ENE,64,5.0,6.2,75,0.00,,CLR,0.06,VWS V14.01,2013-03-09 05:00:00,
2013-03-09 00:05:00,32.6,25.6,30.40,ENE,60,3.8,6.2,75,0.00,,CLR,0.00,VWS V14.01,2013-03-09 05:05:00,
2013-03-09 00:10:00,32.8,25.8,30.40,ENE,66,2.5,6.2,75,0.00,,CLR,0.00,VWS V14.01,2013-03-09 05:10:00,
2013-03-09 00:15:00,32.7,25.7,30.40,ENE,60,2.5,6.2,75,0.00,,CLR,0.00,VWS V14.01,2013-03-09 05:15:00,
2013-03-09 00:20:00,32.7,25.7,30.40,NE,53,5.0,6.2,75,0.00,,CLR,0.00,VWS V14.01,2013-03-09 05:20:00,
2013-03-09 00:25:00,32.6,25.6,30.40,ENE,72,2.5,6.2,75,0.00,,CLR,0.00,VWS V14.01,2013-03-09 05:25:00,
2013-03-09 00:30:00,32.5,25.5,30.40,NE,53,2.5,6.2,75,0.00,,CLR,0.00,VWS V14.01,2013-03-09 05:30:00,
2013-03-09 00:35:00,32.4,25.4,30.40,ENE,69,1.2,3.8,75,0.00,,CLR,0.00,VWS V14.01,2013-03-09 05:35:00,
2013-03-09 00:40:00,32.3,25.6,30.40,ENE,66,2.5,3.8,76,0.00,,CLR,0.00,VWS V14.01,2013-03-09 05:40:00,
2013-03-09 00:45:00,32.3,25.6,30.40,East,83,1.2,3.8,76,0.00,,CLR,0.00,VWS V14.01,2013-03-09 05:45:00,
2013-03-09 00:50:00,32.0,25.6,30.40,East,85,0.0,1.2,77,0.00,,CLR,0.00,VWS V14.01,2013-03-09 05:50:00,
2013-03-09 00:55:00,31.8,25.4,30.40,ENE,68,1.2,2.5,77,0.00,,CLR,0.00,VWS V14.01,2013-03-09 05:55:00,
2013-03-09 01:00:00,31.7,25.3,30.39,ENE,65,2.5,3.8,77,0.00,,CLR,0.00,VWS V14.01,2013-03-09 06:00:00,
2013-03-09 01:05:00,31.6,25.2,30.39,ENE,57,2.5,2.5,77,0.00,,CLR,0.00,VWS V14.01,2013-03-09 06:05:00,
2013-03-09 01:10:00,31.6,25.5,30.39,ENE,68,1.2,2.5,78,0.00,,CLR,0.00,VWS V14.01,2013-03-09 06:10:00,
2013-03-09 01:15:00,31.5,25.4,30.39,ENE,67,2.5,3.8,78,0.00,,CLR,0.00,VWS V14.01,2013-03-09 06:15:00,
2013-03-09 01:20:00,31.6,25.5,30.39,ENE,73,2.5,2.5,78,0.00,,CLR,0.00,VWS V14.01,2013-03-09 06:20:00,
2013-03-09 01:25:00,31.5,25.1,30.39,East,90,1.2,2.5,77,0.00,,CLR,0.00,VWS V14.01,2013-03-09 06:25:00,
2013-03-09 01:30:00,31.4,25.4,30.39,ENE,66,2.5,2.5,78,0.00,,CLR,0.00,VWS V14.01,2013-03-09 06:30:00,
2013-03-09 01:35:00,31.4,25.0,30.38,ENE,72,1.2,3.8,77,0.00,,CLR,0.00,VWS V14.01,2013-03-09 06:35:00,
2013-03-09 01:40:00,31.4,25.0,30.38,ENE,63,2.5,3.8,77,0.00,,CLR,0.00,VWS V14.01,2013-03-09 06:40:00,
2013-03-09 01:45:00,31.6,25.2,30.38,ENE,70,2.5,6.2,77,0.00,,CLR,0.00,VWS V14.01,2013-03-09 06:45:00,
2013-03-09 01:50:00,31.7,25.3,30.38,ENE,65,3.8,6.2,77,0.00,,CLR,0.00,VWS V14.01,2013-03-09 06:50:00,
2013-03-09 01:55:00,32.0,25.3,30.38,ENE,69,2.5,6.2,76,0.00,,CLR,0.00,VWS V14.01,2013-03-09 06:55:00,
2013-03-09 02:00:00,32.2,25.5,30.38,ENE,66,3.8,6.2,76,0.00,,CLR,0.00,VWS V14.01,2013-03-09 07:00:00,
2013-03-09 02:05:00,32.2,25.5,30.38,ENE,67,5.0,5.0,76,0.00,,CLR,0.00,VWS V14.01,2013-03-09 07:05:00,
2013-03-09 02:10:00,32.3,25.6,30.38,ENE,68,3.8,6.2,76,0.00,,CLR,0.00,VWS V14.01,2013-03-09 07:10:00,
2013-03-09 02:15:00,32.2,25.5,30.37,ENE,65,3.8,6.2,76,0.00,,CLR,0.00,VWS V14.01,2013-03-09 07:15:00,
2013-03-09 02:20:00,32.1,25.4,30.37,ENE,60,2.5,6.2,76,0.00,,CLR,0.00,VWS V14.01,2013-03-09 07:20:00,
2013-03-09 02:25:00,32.1,25.7,30.37,ENE,75,2.5,6.2,77,0.00,,CLR,0.00,VWS V14.01,2013-03-09 07:25:00,
2013-03-09 02:30:00,32.0,25.6,30.37,ENE,63,2.5,6.2,77,0.00,,CLR,0.00,VWS V14.01,2013-03-09 07:30:00,
2013-03-09 02:35:00,31.9,25.5,30.37,ENE,61,2.5,5.0,77,0.00,,CLR,0.00,VWS V14.01,2013-03-09 07:35:00,
2013-03-09 02:40:00,31.8,25.7,30.37,East,87,2.5,5.0,78,0.00,,CLR,0.00,VWS V14.01,2013-03-09 07:40:00,
2013-03-09 02:45:00,31.8,25.7,30.37,ENE,76,2.5,5.0,78,0.00,,CLR,0.00,VWS V14.01,2013-03-09 07:45:00,
2013-03-09 02:50:00,31.6,25.5,30.37,ENE,73,1.2,3.8,78,0.00,,CLR,0.00,VWS V14.01,2013-03-09 07:50:00,
2013-03-09 02:55:00,31.6,25.5,30.37,East,86,1.2,3.8,78,0.00,,CLR,0.00,VWS V14.01,2013-03-09 07:55:00,
2013-03-09 03:00:00,31.4,25.6,30.37,ENE,72,2.5,3.8,79,0.00,,CLR,0.00,VWS V14.01,2013-03-09 08:00:00,
2013-03-09 03:05:00,31.3,25.6,30.36,East,79,1.2,2.5,79,0.00,,CLR,0.00,VWS V14.01,2013-03-09 08:05:00,
2013-03-09 03:10:00,31.1,25.7,30.36,East,83,1.2,3.8,80,0.00,,CLR,0.00,VWS V14.01,2013-03-09 08:10:00,
2013-03-09 03:15:00,31.1,25.7,30.35,ENE,65,1.2,3.8,80,0.00,,CLR,0.00,VWS V14.01,2013-03-09 08:15:00,
2013-03-09 03:20:00,31.2,25.8,30.35,East,94,2.5,5.0,80,0.00,,CLR,0.00,VWS V14.01,2013-03-09 08:20:00,
2013-03-09 03:25:00,31.2,25.8,30.34,East,100,2.5,5.0,80,0.00,,CLR,0.00,VWS V14.01,2013-03-09 08:25:00,
2013-03-09 03:30:00,31.2,25.8,30.34,ENE,66,2.5,5.0,80,0.00,,CLR,0.00,VWS V14.01,2013-03-09 08:30:00,
2013-03-09 03:35:00,31.2,25.8,30.33,ENE,68,3.8,5.0,80,0.00,,CLR,0.00,VWS V14.01,2013-03-09 08:35:00,
2013-03-09 03:40:00,31.3,25.9,30.33,ENE,70,1.2,5.0,80,0.00,,CLR,0.00,VWS V14.01,2013-03-09 08:40:00,
2013-03-09 03:45:00,31.3,26.2,30.33,ENE,75,3.8,6.2,81,0.00,,CLR,0.00,VWS V14.01,2013-03-09 08:45:00,
2013-03-09 03:50:00,31.3,26.2,30.33,ENE,65,5.0,6.2,81,0.00,,CLR,0.00,VWS V14.01,2013-03-09 08:50:00,
2013-03-09 03:55:00,31.4,26.2,30.32,ENE,64,5.0,7.5,81,0.00,,CLR,0.00,VWS V14.01,2013-03-09 08:55:00,
2013-03-09 04:00:00,31.5,26.4,30.32,ENE,63,3.8,7.5,81,0.00,,CLR,0.00,VWS V14.01,2013-03-09 09:00:00,
2013-03-09 04:05:00,31.7,26.5,30.32,ENE,70,6.2,7.5,81,0.00,,CLR,0.00,VWS V14.01,2013-03-09 09:05:00,
2013-03-09 04:10:00,31.8,26.6,30.32,ENE,71,5.0,8.8,81,0.00,,CLR,0.00,VWS V14.01,2013-03-09 09:10:00,
2013-03-09 04:15:00,31.9,26.7,30.32,ENE,61,6.2,8.8,81,0.00,,CLR,0.00,VWS V14.01,2013-03-09 09:15:00,
2013-03-09 04:20:00,32.0,26.8,30.31,ENE,60,3.8,8.8,81,0.00,,CLR,0.00,VWS V14.01,2013-03-09 09:20:00,
2013-03-09 04:25:00,32.0,26.8,30.31,ENE,70,5.0,8.8,81,0.00,,CLR,0.00,VWS V14.01,2013-03-09 09:25:00,
2013-03-09 04:30:00,32.1,26.9,30.31,ENE,71,3.8,8.8,81,0.00,,CLR,0.00,VWS V14.01,2013-03-09 09:30:00,
2013-03-09 04:35:00,32.1,26.9,30.31,ENE,63,3.8,7.5,81,0.00,,FEW120,0.00,VWS V14.01,2013-03-09 09:35:00,
2013-03-09 04:40:00,32.1,26.9,30.31,NE,55,7.5,7.5,81,0.00,,FEW120,0.00,VWS V14.01,2013-03-09 09:40:00,
2013-03-09 04:45:00,32.2,27.0,30.31,NE,56,7.5,8.8,81,0.00,,FEW120,0.00,VWS V14.01,2013-03-09 09:45:00,
2013-03-09 04:50:00,32.2,27.0,30.32,ENE,65,2.5,6.2,81,0.00,,FEW120,0.00,VWS V14.01,2013-03-09 09:50:00,
2013-03-09 04:55:00,32.2,26.7,30.32,ENE,67,3.8,6.2,80,0.00,,FEW120,0.00,VWS V14.01,2013-03-09 09:55:00,
2013-03-09 05:00:00,32.2,27.0,30.32,NE,55,3.8,6.2,81,0.00,,FEW120,0.00,VWS V14.01,2013-03-09 10:00:00,
2013-03-09 05:05:00,32.3,27.1,30.32,ENE,63,6.2,6.2,81,0.00,,FEW120,0.00,VWS V14.01,2013-03-09 10:05:00,
2013-03-09 05:10:00,32.3,26.8,30.32,East,86,6.2,7.5,80,0.00,,FEW120,0.00,VWS V14.01,2013-03-09 10:10:00,
2013-03-09 05:15:00,32.5,27.0,30.32,NE,53,5.0,7.5,80,0.00,,FEW120,0.00,VWS V14.01,2013-03-09 10:15:00,
2013-03-09 05:20:00,32.6,27.1,30.32,NE,56,5.0,6.2,80,0.00,,FEW120,0.00,VWS V14.01,2013-03-09 10:20:00,
2013-03-09 05:25:00,32.7,27.2,30.32,ENE,69,6.2,7.5,80,0.00,,FEW120,0.00,VWS V14.01,2013-03-09 10:25:00,
2013-03-09 05:30:00,32.7,27.2,30.32,ENE,66,5.0,7.5,80,0.00,,FEW120,0.00,VWS V14.01,2013-03-09 10:30:00,
2013-03-09 05:35:00,32.9,27.4,30.32,East,92,1.2,5.0,80,0.00,,SCT120,0.00,VWS V14.01,2013-03-09 10:35:00,
2013-03-09 05:39:00,32.9,27.1,30.32,ENE,78,2.5,6.2,79,0.00,,SCT120,0.00,VWS V14.01,2013-03-09 10:39:00,
2013-03-09 05:44:00,33.0,27.2,30.32,ENE,70,2.5,6.2,79,0.00,,SCT120,0.00,VWS V14.01,2013-03-09 10:44:00,
2013-03-09 05:45:00,33.0,27.2,30.32,ENE,67,2.5,6.2,79,0.00,,CLR,0.00,VWS V14.01,2013-03-09 10:45:00,
2013-03-09 05:49:00,32.9,27.4,30.32,East,84,2.5,3.8,80,0.00,,SCT120,0.00,VWS V14.01,2013-03-09 10:49:00,
2013-03-09 05:54:00,32.9,27.4,30.32,East,89,2.5,3.8,80,0.00,,SCT120,0.00,VWS V14.01,2013-03-09 10:54:00,
2013-03-09 05:59:00,32.9,27.4,30.32,East,101,1.2,5.0,80,0.00,,SCT120,0.00,VWS V14.01,2013-03-09 10:59:00,
2013-03-09 06:00:00,32.9,27.4,30.32,East,101,1.2,5.0,80,0.00,,CLR,0.00,VWS V14.01,2013-03-09 11:00:00,
2013-03-09 06:04:00,32.9,27.1,30.32,East,86,5.0,5.0,79,0.00,,SCT120,0.00,VWS V14.01,2013-03-09 11:04:00,
2013-03-09 06:09:00,32.9,27.4,30.32,SE,125,1.2,5.0,80,0.00,,SCT120,0.00,VWS V14.01,2013-03-09 11:09:00,
2013-03-09 06:14:00,32.8,27.3,30.33,East,79,2.5,5.0,80,0.00,,SCT120,0.00,VWS V14.01,2013-03-09 11:14:00,
2013-03-09 06:15:00,32.8,27.3,30.33,ENE,78,1.2,5.0,80,0.00,,CLR,0.00,VWS V14.01,2013-03-09 11:15:00,
2013-03-09 06:19:00,32.8,27.3,30.32,ENE,70,1.2,3.8,80,0.00,,SCT120,0.00,VWS V14.01,2013-03-09 11:19:00,
2013-03-09 06:24:00,32.9,27.4,30.32,East,82,2.5,3.8,80,0.00,,SCT120,0.00,VWS V14.01,2013-03-09 11:24:00,
2013-03-09 06:29:00,32.9,27.4,30.32,East,87,3.8,3.8,80,0.00,,SCT120,0.00,VWS V14.01,2013-03-09 11:29:00,
2013-03-09 06:30:00,32.9,27.4,30.32,East,86,2.5,3.8,80,0.00,,CLR,0.00,VWS V14.01,2013-03-09 11:30:00,
2013-03-09 06:34:00,32.9,27.4,30.31,ENE,69,5.0,6.2,80,0.00,,CLR,0.00,VWS V14.01,2013-03-09 11:34:00,
2013-03-09 06:39:00,33.1,27.6,30.31,SE,125,3.8,6.2,80,0.00,,CLR,0.00,VWS V14.01,2013-03-09 11:39:00,
2013-03-09 06:44:00,33.1,27.6,30.32,WNW,293,0.0,6.2,80,0.00,,CLR,0.00,VWS V14.01,2013-03-09 11:44:00,
2013-03-09 06:45:00,33.1,27.6,30.32,WNW,293,0.0,6.2,80,0.00,,CLR,0.00,VWS V14.01,2013-03-09 11:45:00,
2013-03-09 06:49:00,33.1,27.6,30.32,ESE,117,1.2,2.5,80,0.00,,CLR,0.00,VWS V14.01,2013-03-09 11:49:00,
2013-03-09 06:54:00,33.2,27.7,30.32,East,93,0.0,3.8,80,0.00,,CLR,0.00,VWS V14.01,2013-03-09 11:54:00,
2013-03-09 06:59:00,33.2,27.4,30.33,WSW,243,2.5,3.8,79,0.00,,CLR,0.00,VWS V14.01,2013-03-09 11:59:00,
2013-03-09 07:00:00,33.2,27.4,30.33,WSW,241,0.0,3.8,79,0.00,,CLR,0.00,VWS V14.01,2013-03-09 12:00:00,
2013-03-09 07:04:00,33.2,27.4,30.33,SE,129,0.0,2.5,79,0.00,,CLR,0.00,VWS V14.01,2013-03-09 12:04:00,
2013-03-09 07:09:00,33.3,27.8,30.33,SSE,158,0.0,2.5,80,0.00,,CLR,0.00,VWS V14.01,2013-03-09 12:09:00,
2013-03-09 07:14:00,33.2,27.7,30.33,ENE,70,2.5,3.8,80,0.00,,CLR,0.00,VWS V14.01,2013-03-09 12:14:00,
2013-03-09 07:15:00,33.2,27.7,30.33,ENE,78,2.5,3.8,80,0.00,,CLR,0.00,VWS V14.01,2013-03-09 12:15:00,
2013-03-09 07:19:00,33.2,27.7,30.33,East,81,2.5,3.8,80,0.00,,CLR,0.00,VWS V14.01,2013-03-09 12:19:00,
2013-03-09 07:24:00,33.3,27.5,30.33,East,81,1.2,3.8,79,0.00,,CLR,0.00,VWS V14.01,2013-03-09 12:24:00,
2013-03-09 07:29:00,33.2,27.7,30.32,East,96,1.2,3.8,80,0.00,,CLR,0.00,VWS V14.01,2013-03-09 12:29:00,
2013-03-09 07:30:00,33.2,27.7,30.32,East,96,1.2,3.8,80,0.00,,CLR,0.00,VWS V14.01,2013-03-09 12:30:00,
2013-03-09 07:34:00,33.3,27.8,30.32,ESE,121,0.0,3.8,80,0.00,,CLR,0.00,VWS V14.01,2013-03-09 12:34:00,
2013-03-09 07:39:00,33.3,27.8,30.32,ESE,117,0.0,3.8,80,0.00,,CLR,0.00,VWS V14.01,2013-03-09 12:39:00,
2013-03-09 07:44:00,33.3,27.8,30.33,East,100,1.2,3.8,80,0.00,,CLR,0.00,VWS V14.01,2013-03-09 12:44:00,
2013-03-09 07:45:00,33.3,27.8,30.33,East,98,0.0,3.8,80,0.00,,CLR,0.00,VWS V14.01,2013-03-09 12:45:00,
2013-03-09 07:49:00,33.4,27.6,30.32,ESE,114,0.0,3.8,79,0.00,,CLR,0.00,VWS V14.01,2013-03-09 12:49:00,
2013-03-09 07:54:00,33.5,28.0,30.33,SE,125,0.0,3.8,80,0.00,,CLR,0.00,VWS V14.01,2013-03-09 12:54:00,
2013-03-09 07:59:00,33.7,27.9,30.32,NE,51,3.8,6.2,79,0.00,,CLR,0.00,VWS V14.01,2013-03-09 12:59:00,
2013-03-09 08:00:00,33.8,28.0,30.32,East,84,5.0,6.2,79,0.00,,CLR,0.00,VWS V14.01,2013-03-09 13:00:00,
2013-03-09 08:04:00,34.2,28.1,30.31,ENE,61,5.0,6.2,78,0.00,,CLR,0.00,VWS V14.01,2013-03-09 13:04:00,
2013-03-09 08:09:00,34.6,28.1,30.32,East,82,1.2,6.2,77,0.00,,CLR,0.00,VWS V14.01,2013-03-09 13:09:00,
2013-03-09 08:14:00,35.0,28.2,30.31,East,81,6.2,7.5,76,0.00,,CLR,0.00,VWS V14.01,2013-03-09 13:14:00,
2013-03-09 08:15:00,35.1,28.3,30.31,ENE,77,5.0,7.5,76,0.00,,CLR,0.00,VWS V14.01,2013-03-09 13:15:00,
2013-03-09 08:19:00,35.4,28.3,30.31,ESE,117,3.8,6.2,75,0.00,,CLR,0.00,VWS V14.01,2013-03-09 13:19:00,
2013-03-09 08:24:00,35.9,28.4,30.31,East,86,3.8,6.2,74,0.00,,CLR,0.00,VWS V14.01,2013-03-09 13:24:00,
2013-03-09 08:29:00,36.4,28.6,30.31,East,90,2.5,6.2,73,0.00,,CLR,0.00,VWS V14.01,2013-03-09 13:29:00,
2013-03-09 08:30:00,36.4,28.6,30.31,ENE,61,3.8,6.2,73,0.00,,CLR,0.00,VWS V14.01,2013-03-09 13:30:00,
2013-03-09 08:34:00,36.8,28.6,30.31,ESE,103,1.2,6.2,72,0.00,,CLR,0.00,VWS V14.01,2013-03-09 13:34:00,
2013-03-09 08:39:00,37.1,28.6,30.31,ENE,66,1.2,6.2,71,0.00,,CLR,0.00,VWS V14.01,2013-03-09 13:39:00,
2013-03-09 08:44:00,37.5,28.6,30.30,ENE,63,5.0,12.5,70,0.00,,CLR,0.00,VWS V14.01,2013-03-09 13:44:00,
2013-03-09 08:45:00,37.5,28.6,30.30,ENE,57,5.0,12.5,70,0.00,,CLR,0.00,VWS V14.01,2013-03-09 13:45:00,
2013-03-09 08:49:00,37.9,29.0,30.30,East,81,3.8,7.5,70,0.00,,CLR,0.00,VWS V14.01,2013-03-09 13:49:00,
2013-03-09 08:54:00,38.0,28.4,30.31,SE,142,2.5,8.8,68,0.00,,CLR,0.00,VWS V14.01,2013-03-09 13:54:00,
2013-03-09 08:59:00,38.2,28.2,30.31,ESE,113,5.0,8.8,67,0.00,,CLR,0.00,VWS V14.01,2013-03-09 13:59:00,
2013-03-09 09:00:00,38.2,28.2,30.31,ESE,103,5.0,8.8,67,0.00,,CLR,0.00,VWS V14.01,2013-03-09 14:00:00,
2013-03-09 09:04:00,38.4,28.4,30.31,West,270,3.8,6.2,67,0.00,,CLR,0.00,VWS V14.01,2013-03-09 14:04:00,
2013-03-09 09:09:00,38.6,28.6,30.31,East,89,1.2,7.5,67,0.00,,CLR,0.00,VWS V14.01,2013-03-09 14:09:00,
2013-03-09 09:14:00,38.9,28.5,30.31,NE,56,2.5,7.5,66,0.00,,CLR,0.00,VWS V14.01,2013-03-09 14:14:00,
2013-03-09 09:15:00,38.9,28.5,30.31,East,97,5.0,7.5,66,0.00,,CLR,0.00,VWS V14.01,2013-03-09 14:15:00,
2013-03-09 09:19:00,39.1,28.3,30.31,SE,127,6.2,10.0,65,0.00,,CLR,0.00,VWS V14.01,2013-03-09 14:19:00,
2013-03-09 09:24:00,39.4,29.0,30.31,ESE,122,1.2,10.0,66,0.00,,CLR,0.00,VWS V14.01,2013-03-09 14:24:00,
2013-03-09 09:29:00,39.6,28.4,30.30,East,88,7.5,10.0,64,0.00,,CLR,0.00,VWS V14.01,2013-03-09 14:29:00,
2013-03-09 09:30:00,39.6,28.4,30.30,East,94,5.0,10.0,64,0.00,,CLR,0.00,VWS V14.01,2013-03-09 14:30:00,
2013-03-09 09:34:00,39.6,28.4,30.30,East,83,5.0,10.0,64,0.00,,CLR,0.00,VWS V14.01,2013-03-09 14:34:00,
2013-03-09 09:39:00,39.9,28.7,30.30,ENE,70,2.5,10.0,64,0.00,,CLR,0.00,VWS V14.01,2013-03-09 14:39:00,
2013-03-09 09:44:00,40.3,29.1,30.30,ENE,63,5.0,10.0,64,0.00,,CLR,0.00,VWS V14.01,2013-03-09 14:44:00,
2013-03-09 09:45:00,40.4,29.2,30.30,East,85,3.8,10.0,64,0.00,,CLR,0.00,VWS V14.01,2013-03-09 14:45:00,
2013-03-09 09:49:00,40.6,29.0,30.30,ENE,58,5.0,7.5,63,0.00,,CLR,0.00,VWS V14.01,2013-03-09 14:49:00,
2013-03-09 09:54:00,41.2,28.8,30.30,SE,131,1.2,7.5,61,0.00,,CLR,0.00,VWS V14.01,2013-03-09 14:54:00,
2013-03-09 09:59:00,42.0,29.5,30.30,ENE,60,0.0,7.5,61,0.00,,CLR,0.00,VWS V14.01,2013-03-09 14:59:00,
2013-03-09 10:00:00,42.1,29.6,30.30,East,81,2.5,7.5,61,0.00,,CLR,0.00,VWS V14.01,2013-03-09 15:00:00,
2013-03-09 10:04:00,42.5,29.6,30.30,NW,314,1.2,6.2,60,0.00,,CLR,0.00,VWS V14.01,2013-03-09 15:04:00,
2013-03-09 10:09:00,42.6,29.7,30.30,ESE,122,3.8,10.0,60,0.00,,CLR,0.00,VWS V14.01,2013-03-09 15:09:00,
2013-03-09 10:14:00,42.4,29.1,30.30,SE,134,1.2,10.0,59,0.00,,CLR,0.00,VWS V14.01,2013-03-09 15:14:00,
2013-03-09 10:15:00,42.3,29.4,30.30,East,79,3.8,10.0,60,0.00,,CLR,0.00,VWS V14.01,2013-03-09 15:15:00,
2013-03-09 10:19:00,42.5,29.2,30.30,ESE,120,1.2,6.2,59,0.00,,CLR,0.00,VWS V14.01,2013-03-09 15:19:00,
2013-03-09 10:24:00,42.9,28.7,30.30,SE,127,0.0,7.5,57,0.00,,CLR,0.00,VWS V14.01,2013-03-09 15:24:00,
2013-03-09 10:29:00,43.4,29.2,30.30,ENE,63,2.5,7.5,57,0.00,,CLR,0.00,VWS V14.01,2013-03-09 15:29:00,
2013-03-09 10:30:00,43.4,29.2,30.30,SE,127,2.5,7.5,57,0.00,,CLR,0.00,VWS V14.01,2013-03-09 15:30:00,
2013-03-09 10:34:00,44.0,30.2,30.30,East,82,0.0,6.2,58,0.00,,CLR,0.00,VWS V14.01,2013-03-09 15:34:00,
2013-03-09 10:39:00,44.8,31.4,30.29,ENE,66,5.0,8.8,59,0.00,,CLR,0.00,VWS V14.01,2013-03-09 15:39:00,
2013-03-09 10:44:00,45.1,30.4,30.29,South,174,6.2,8.8,56,0.00,,CLR,0.00,VWS V14.01,2013-03-09 15:44:00,
2013-03-09 10:45:00,45.2,30.0,30.29,SSW,199,2.5,8.8,55,0.00,,CLR,0.00,VWS V14.01,2013-03-09 15:45:00,
2013-03-09 10:49:00,45.5,30.3,30.29,ENE,57,2.5,7.5,55,0.00,,CLR,0.00,VWS V14.01,2013-03-09 15:49:00,
2013-03-09 10:54:00,45.8,29.7,30.28,ESE,116,6.2,7.5,53,0.00,,CLR,0.00,VWS V14.01,2013-03-09 15:54:00,
2013-03-09 10:59:00,45.7,28.6,30.28,ENE,65,6.2,10.0,51,0.00,,CLR,0.00,VWS V14.01,2013-03-09 15:59:00,
2013-03-09 11:00:00,45.6,28.5,30.28,ENE,67,6.2,10.0,51,0.00,,CLR,0.00,VWS V14.01,2013-03-09 16:00:00,
2013-03-09 11:04:00,45.2,29.1,30.28,NE,51,5.0,10.0,53,0.00,,CLR,0.00,VWS V14.01,2013-03-09 16:04:00,
2013-03-09 11:09:00,45.4,29.7,30.28,ESE,103,2.5,10.0,54,0.00,,CLR,0.00,VWS V14.01,2013-03-09 16:09:00,
2013-03-09 11:14:00,45.9,29.8,30.27,SE,138,0.0,10.0,53,0.00,,CLR,0.00,VWS V14.01,2013-03-09 16:14:00,
2013-03-09 11:15:00,45.9,29.8,30.27,NE,44,3.8,10.0,53,0.00,,CLR,0.00,VWS V14.01,2013-03-09 16:15:00,
2013-03-09 11:19:00,46.0,29.4,30.27,ESE,121,3.8,11.2,52,0.00,,CLR,0.00,VWS V14.01,2013-03-09 16:19:00,
2013-03-09 11:24:00,46.1,29.5,30.27,East,93,3.8,11.2,52,0.00,,CLR,0.00,VWS V14.01,2013-03-09 16:24:00,
2013-03-09 11:29:00,46.5,29.8,30.27,ESE,104,2.5,11.2,52,0.00,,CLR,0.00,VWS V14.01,2013-03-09 16:29:00,
2013-03-09 11:30:00,46.5,29.8,30.27,WNW,291,1.2,11.2,52,0.00,,CLR,0.00,VWS V14.01,2013-03-09 16:30:00,
2013-03-09 11:34:00,47.2,30.5,30.27,SE,136,1.2,5.0,52,0.00,,CLR,0.00,VWS V14.01,2013-03-09 16:34:00,
2013-03-09 11:39:00,47.7,30.0,30.27,SE,124,3.8,10.0,50,0.00,,CLR,0.00,VWS V14.01,2013-03-09 16:39:00,
2013-03-09 11:44:00,48.1,30.4,30.27,ESE,120,1.2,10.0,50,0.00,,CLR,0.00,VWS V14.01,2013-03-09 16:44:00,
2013-03-09 11:45:00,48.1,30.4,30.27,SE,131,2.5,2.5,50,0.00,,CLR,0.00,VWS V14.01,2013-03-09 16:45:00,
2013-03-09 11:58:00,49.3,29.9,30.26,NNW,341,2.5,2.5,47,0.00,,CLR,0.00,VWS V14.01,2013-03-09 16:58:00,
2013-03-09 12:00:00,49.5,29.6,30.26,ENE,66,6.2,7.5,46,0.00,,OVC080,0.00,VWS V14.01,2013-03-09 17:00:00,
2013-03-09 12:03:00,49.7,30.3,30.26,ESE,114,0.0,7.5,47,0.00,,CLR,0.00,VWS V14.01,2013-03-09 17:03:00,
2013-03-09 12:08:00,50.3,30.3,30.26,East,81,2.5,11.2,46,0.00,,CLR,0.00,VWS V14.01,2013-03-09 17:08:00,
2013-03-09 12:13:00,50.9,30.3,30.26,WSW,254,6.2,11.2,45,0.00,,CLR,0.00,VWS V14.01,2013-03-09 17:13:00,
2013-03-09 12:15:00,51.0,31.5,30.26,SE,129,1.2,11.2,47,0.00,,OVC080,0.00,VWS V14.01,2013-03-09 17:15:00,
2013-03-09 12:18:00,50.8,29.7,30.26,NNE,18,6.2,8.8,44,0.00,,CLR,0.00,VWS V14.01,2013-03-09 17:18:00,
2013-03-09 12:23:00,50.7,31.2,30.25,WSW,254,0.0,8.8,47,0.00,,CLR,0.00,VWS V14.01,2013-03-09 17:23:00,
2013-03-09 12:28:00,51.8,31.1,30.25,ENE,66,1.2,8.8,45,0.00,,CLR,0.00,VWS V14.01,2013-03-09 17:28:00,
2013-03-09 12:30:00,51.9,30.1,30.25,NE,37,7.5,8.8,43,0.00,,OVC080,0.00,VWS V14.01,2013-03-09 17:30:00,
2013-03-09 12:33:00,51.8,30.6,30.24,NE,53,2.5,8.8,44,0.00,,CLR,0.00,VWS V14.01,2013-03-09 17:33:00,
2013-03-09 12:38:00,52.4,31.7,30.24,SE,127,1.2,8.8,45,0.00,,CLR,0.00,VWS V14.01,2013-03-09 17:38:00,
2013-03-09 12:43:00,52.7,30.3,30.24,ENE,68,6.2,8.8,42,0.00,,CLR,0.00,VWS V14.01,2013-03-09 17:43:00,
2013-03-09 12:45:00,52.5,30.7,30.23,NE,42,2.5,8.8,43,0.00,,OVC080,0.00,VWS V14.01,2013-03-09 17:45:00,
2013-03-09 12:48:00,52.2,30.4,30.23,East,83,2.5,6.2,43,0.00,,CLR,0.00,VWS V14.01,2013-03-09 17:48:00,
2013-03-09 12:53:00,51.8,30.0,30.23,SE,128,3.8,6.2,43,0.00,,CLR,0.00,VWS V14.01,2013-03-09 17:53:00,
2013-03-09 12:58:00,52.0,31.3,30.22,WNW,285,3.8,6.2,45,0.00,,CLR,0.00,VWS V14.01,2013-03-09 17:58:00,
2013-03-09 13:00:00,52.2,30.4,30.22,North,3,3.8,6.2,43,0.00,,OVC080,0.00,VWS V14.01,2013-03-09 18:00:00,
2013-03-09 13:03:00,52.3,29.9,30.22,SE,129,1.2,5.0,42,0.00,,CLR,0.00,VWS V14.01,2013-03-09 18:03:00,
2013-03-09 13:08:00,52.3,28.7,30.23,ENE,72,0.0,6.2,40,0.00,,CLR,0.00,VWS V14.01,2013-03-09 18:08:00,
2013-03-09 13:13:00,52.6,31.3,30.22,South,191,3.8,6.2,44,0.00,,CLR,0.00,VWS V14.01,2013-03-09 18:13:00,
2013-03-09 13:15:00,52.8,30.4,30.22,SE,127,1.2,6.2,42,0.00,,OVC080,0.00,VWS V14.01,2013-03-09 18:15:00,
2013-03-09 13:18:00,53.3,32.0,30.22,East,101,1.2,7.5,44,0.00,,CLR,0.00,VWS V14.01,2013-03-09 18:18:00,
2013-03-09 13:23:00,53.6,31.1,30.22,NE,49,2.5,7.5,42,0.00,,CLR,0.00,VWS V14.01,2013-03-09 18:23:00,
2013-03-09 13:28:00,53.7,30.6,30.22,ENE,69,1.2,7.5,41,0.00,,CLR,0.00,VWS V14.01,2013-03-09 18:28:00,
2013-03-09 13:30:00,53.6,31.7,30.21,ESE,110,5.0,7.5,43,0.00,,OVC080,0.00,VWS V14.01,2013-03-09 18:30:00,
2013-03-09 13:33:00,53.5,30.4,30.21,East,86,7.5,7.5,41,0.00,,CLR,0.00,VWS V14.01,2013-03-09 18:33:00,
2013-03-09 13:38:00,53.3,31.4,30.20,NE,55,3.8,8.8,43,0.00,,CLR,0.00,VWS V14.01,2013-03-09 18:38:00,
2013-03-09 13:43:00,53.3,32.0,30.20,East,89,2.5,8.8,44,0.00,,CLR,0.00,VWS V14.01,2013-03-09 18:43:00,
2013-03-09 13:45:00,53.5,31.0,30.20,SE,138,1.2,8.8,42,0.00,,OVC080,0.00,VWS V14.01,2013-03-09 18:45:00,
2013-03-09 13:48:00,53.8,31.3,30.20,NE,39,3.8,7.5,42,0.00,,CLR,0.00,VWS V14.01,2013-03-09 18:48:00,
2013-03-09 13:53:00,53.9,30.8,30.20,East,98,1.2,7.5,41,0.00,,CLR,0.00,VWS V14.01,2013-03-09 18:53:00,
2013-03-09 13:58:00,54.2,31.0,30.20,SSE,160,2.5,7.5,41,0.00,,CLR,0.00,VWS V14.01,2013-03-09 18:58:00,
2013-03-09 14:00:00,54.5,30.1,30.20,ENE,72,5.0,7.5,39,0.00,,OVC080,0.00,VWS V14.01,2013-03-09 19:00:00,
2013-03-09 14:03:00,54.3,29.9,30.20,SSE,162,3.8,7.5,39,0.00,,CLR,0.00,VWS V14.01,2013-03-09 19:03:00,
2013-03-09 14:08:00,54.5,31.3,30.19,SE,143,3.8,7.5,41,0.00,,CLR,0.00,VWS V14.01,2013-03-09 19:08:00,
2013-03-09 14:13:00,54.5,30.1,30.18,WNW,303,2.5,10.0,39,0.00,,CLR,0.00,VWS V14.01,2013-03-09 19:13:00,
2013-03-09 14:15:00,54.3,30.5,30.18,NE,45,1.2,10.0,40,0.00,,OVC080,0.00,VWS V14.01,2013-03-09 19:15:00,
2013-03-09 14:18:00,54.3,31.1,30.18,WSW,248,1.2,3.8,41,0.00,,CLR,0.00,VWS V14.01,2013-03-09 19:18:00,
2013-03-09 14:23:00,54.6,30.8,30.18,East,100,2.5,6.2,40,0.00,,CLR,0.00,VWS V14.01,2013-03-09 19:23:00,
2013-03-09 14:28:00,54.6,30.8,30.17,SE,137,2.5,6.2,40,0.00,,CLR,0.00,VWS V14.01,2013-03-09 19:28:00,
2013-03-09 14:30:00,54.8,31.6,30.17,ESE,111,5.0,7.5,41,0.00,,OVC080,0.00,VWS V14.01,2013-03-09 19:30:00,
2013-03-09 14:33:00,55.0,30.5,30.17,ESE,114,3.8,8.8,39,0.00,,SCT100,0.00,VWS V14.01,2013-03-09 19:33:00,
2013-03-09 14:38:00,55.5,31.6,30.17,SW,225,1.2,8.8,40,0.00,,SCT100,0.00,VWS V14.01,2013-03-09 19:38:00,
2013-03-09 14:43:00,55.8,31.2,30.17,NE,53,1.2,8.8,39,0.00,,SCT100,0.00,VWS V14.01,2013-03-09 19:43:00,
2013-03-09 14:45:00,55.6,31.1,30.17,NNE,32,2.5,8.8,39,0.00,,OVC080,0.00,VWS V14.01,2013-03-09 19:45:00,
2013-03-09 14:48:00,55.4,31.5,30.17,ENE,75,2.5,6.2,40,0.00,,SCT100,0.00,VWS V14.01,2013-03-09 19:48:00,
2013-03-09 14:53:00,55.2,31.9,30.17,East,86,2.5,6.2,41,0.00,,SCT100,0.00,VWS V14.01,2013-03-09 19:53:00,
2013-03-09 14:58:00,55.5,30.3,30.16,East,82,1.2,6.2,38,0.00,,SCT100,0.00,VWS V14.01,2013-03-09 19:58:00,
2013-03-09 15:00:00,55.1,33.0,30.14,East,89,1.2,6.2,43,0.00,,SCT120,0.00,VWS V14.01,2013-03-09 20:00:00,
2013-03-09 15:03:00,56.5,31.9,30.15,SE,146,3.8,5.0,39,0.00,,SCT100,0.00,VWS V14.01,2013-03-09 20:03:00,
2013-03-09 15:08:00,56.8,31.5,30.15,ENE,66,3.8,7.5,38,0.00,,SCT100,0.00,VWS V14.01,2013-03-09 20:08:00,
2013-03-09 15:13:00,56.3,31.0,30.15,ENE,62,5.0,7.5,38,0.00,,SCT100,0.00,VWS V14.01,2013-03-09 20:13:00,
2013-03-09 15:15:00,56.2,31.6,30.14,ENE,77,2.5,7.5,39,0.00,,OVC080,0.00,VWS V14.01,2013-03-09 20:15:00,
2013-03-09 15:18:00,56.1,31.5,30.15,SE,136,2.5,6.2,39,0.00,,SCT100,0.00,VWS V14.01,2013-03-09 20:18:00,
2013-03-09 15:23:00,55.8,31.9,30.15,ESE,122,2.5,7.5,40,0.00,,SCT100,0.00,VWS V14.01,2013-03-09 20:23:00,
2013-03-09 15:28:00,55.7,31.1,30.14,ESE,113,3.8,7.5,39,0.00,,SCT100,0.00,VWS V14.01,2013-03-09 20:28:00,
2013-03-09 15:30:00,55.6,31.1,30.14,ESE,105,0.0,7.5,39,0.00,,OVC080,0.00,VWS V14.01,2013-03-09 20:30:00,
2013-03-09 15:33:00,55.7,31.1,30.14,SE,132,2.5,10.0,39,0.00,,OVC080,0.00,VWS V14.01,2013-03-09 20:33:00,
2013-03-09 15:38:00,55.6,32.9,30.14,West,276,3.8,10.0,42,0.00,,OVC080,0.00,VWS V14.01,2013-03-09 20:38:00,
2013-03-09 15:43:00,55.4,31.5,30.14,SE,127,2.5,10.0,40,0.00,,OVC080,0.00,VWS V14.01,2013-03-09 20:43:00,
2013-03-09 15:45:00,55.3,31.4,30.14,SE,132,2.5,10.0,40,0.00,,OVC080,0.00,VWS V14.01,2013-03-09 20:45:00,
2013-03-09 15:48:00,55.3,31.4,30.14,East,98,2.5,3.8,40,0.00,,OVC080,0.00,VWS V14.01,2013-03-09 20:48:00,
2013-03-09 15:53:00,55.1,31.8,30.14,SE,143,2.5,5.0,41,0.00,,OVC080,0.00,VWS V14.01,2013-03-09 20:53:00,
2013-03-09 15:58:00,54.9,31.0,30.14,ESE,113,1.2,6.2,40,0.00,,OVC080,0.00,VWS V14.01,2013-03-09 20:58:00,
2013-03-09 16:00:00,55.1,33.0,30.14,East,89,1.2,6.2,43,0.00,,OVC080,0.00,VWS V14.01,2013-03-09 21:00:00,
2013-03-09 16:03:00,55.1,31.8,30.14,East,83,1.2,6.2,41,0.00,,OVC080,0.00,VWS V14.01,2013-03-09 21:03:00,
2013-03-09 16:08:00,55.3,33.2,30.13,SE,143,0.0,6.2,43,0.00,,OVC080,0.00,VWS V14.01,2013-03-09 21:08:00,
2013-03-09 16:15:00,54.5,33.0,30.11,East,83,2.5,7.5,44,0.00,,SCT120,0.00,VWS V14.01,2013-03-09 21:15:00,
2013-03-09 16:17:00,55.8,33.1,30.13,East,91,2.5,2.5,42,0.00,,OVC080,0.00,VWS V14.01,2013-03-09 21:17:00,
2013-03-09 16:22:00,56.3,33.5,30.13,NE,55,7.5,8.8,42,0.00,,OVC080,0.00,VWS V14.01,2013-03-09 21:22:00,
2013-03-09 16:27:00,56.5,32.5,30.13,SE,133,1.2,8.8,40,0.00,,OVC080,0.00,VWS V14.01,2013-03-09 21:27:00,
2013-03-09 16:30:00,54.2,32.8,30.11,ESE,105,2.5,6.2,44,0.00,,SCT120,0.00,VWS V14.01,2013-03-09 21:30:00,
2013-03-09 16:32:00,55.8,32.5,30.12,East,83,2.5,7.5,41,0.00,,BKN110,0.00,VWS V14.01,2013-03-09 21:32:00,
2013-03-09 16:37:00,55.1,32.4,30.12,East,81,5.0,7.5,42,0.00,,BKN110,0.00,VWS V14.01,2013-03-09 21:37:00,
2013-03-09 16:42:00,55.0,32.3,30.12,ENE,63,2.5,7.5,42,0.00,,BKN110,0.00,VWS V14.01,2013-03-09 21:42:00,
2013-03-09 16:45:00,53.7,32.9,30.11,ESE,108,0.0,5.0,45,0.00,,SCT120,0.00,VWS V14.01,2013-03-09 21:45:00,
2013-03-09 16:47:00,54.9,32.8,30.12,SE,134,0.0,5.0,43,0.00,,BKN110,0.00,VWS V14.01,2013-03-09 21:47:00,
2013-03-09 16:52:00,54.8,32.2,30.12,NE,49,3.8,6.2,42,0.00,,BKN110,0.00,VWS V14.01,2013-03-09 21:52:00,
2013-03-09 16:57:00,54.7,32.7,30.12,ENE,68,2.5,6.2,43,0.00,,BKN110,0.00,VWS V14.01,2013-03-09 21:57:00,
2013-03-09 17:00:00,53.4,33.2,30.10,ESE,108,1.2,5.0,46,0.00,,SCT120,0.00,VWS V14.01,2013-03-09 22:00:00,
2013-03-09 17:02:00,54.7,32.7,30.11,East,97,3.8,6.2,43,0.00,,BKN110,0.00,VWS V14.01,2013-03-09 22:02:00,
2013-03-09 17:07:00,54.6,32.0,30.11,East,101,1.2,6.2,42,0.00,,BKN110,0.00,VWS V14.01,2013-03-09 22:07:00,
2013-03-09 17:12:00,54.5,31.9,30.11,ESE,120,3.8,6.2,42,0.00,,BKN110,0.00,VWS V14.01,2013-03-09 22:12:00,
2013-03-09 17:15:00,53.2,33.0,30.10,East,83,2.5,5.0,46,0.00,,SCT120,0.00,VWS V14.01,2013-03-09 22:15:00,
2013-03-09 17:17:00,54.5,33.0,30.11,East,93,1.2,2.5,44,0.00,,BKN110,0.00,VWS V14.01,2013-03-09 22:17:00,
2013-03-09 17:22:00,54.4,32.4,30.11,ESE,121,0.0,6.2,43,0.00,,BKN110,0.00,VWS V14.01,2013-03-09 22:22:00,
2013-03-09 17:27:00,54.3,34.0,30.11,ESE,122,2.5,6.2,46,0.00,,BKN110,0.00,VWS V14.01,2013-03-09 22:27:00,
2013-03-09 17:30:00,53.3,33.6,30.10,East,98,2.5,6.2,47,0.00,,SCT120,0.00,VWS V14.01,2013-03-09 22:30:00,
2013-03-09 17:32:00,54.1,32.1,30.11,East,80,0.0,3.8,43,0.00,,OVC110,0.00,VWS V14.01,2013-03-09 22:32:00,
2013-03-09 17:37:00,53.9,32.5,30.11,SSE,148,1.2,5.0,44,0.00,,OVC110,0.00,VWS V14.01,2013-03-09 22:37:00,
2013-03-09 17:42:00,53.7,32.3,30.11,ESE,116,1.2,5.0,44,0.00,,OVC110,0.00,VWS V14.01,2013-03-09 22:42:00,
2013-03-09 17:45:00,53.2,32.4,30.09,East,84,3.8,5.0,45,0.00,,SCT120,0.00,VWS V14.01,2013-03-09 22:45:00,
2013-03-09 17:47:00,53.7,32.9,30.11,East,100,0.0,2.5,45,0.00,,OVC110,0.00,VWS V14.01,2013-03-09 22:47:00,
2013-03-09 17:52:00,53.6,33.3,30.11,East,88,1.2,3.8,46,0.00,,OVC110,0.00,VWS V14.01,2013-03-09 22:52:00,
2013-03-09 17:57:00,53.5,32.7,30.10,ESE,115,2.5,3.8,45,0.00,,OVC110,0.00,VWS V14.01,2013-03-09 22:57:00,
2013-03-09 18:00:00,53.0,31.7,30.09,ESE,111,1.2,6.2,44,0.00,,SCT120,0.00,VWS V14.01,2013-03-09 23:00:00,
2013-03-09 18:02:00,53.3,33.6,30.10,ENE,77,1.2,3.8,47,0.00,,OVC110,0.00,VWS V14.01,2013-03-09 23:02:00,
2013-03-09 18:07:00,53.2,33.0,30.10,East,98,1.2,5.0,46,0.00,,OVC110,0.00,VWS V14.01,2013-03-09 23:07:00,
2013-03-09 18:12:00,53.2,33.0,30.10,East,93,0.0,5.0,46,0.00,,OVC110,0.00,VWS V14.01,2013-03-09 23:12:00,
2013-03-09 18:15:00,52.7,32.5,30.08,East,93,1.2,6.2,46,0.00,,SCT120,0.00,VWS V14.01,2013-03-09 23:15:00,
2013-03-09 18:17:00,53.2,33.5,30.10,East,98,1.2,3.8,47,0.00,,OVC110,0.00,VWS V14.01,2013-03-09 23:17:00,
2013-03-09 18:22:00,53.3,33.1,30.10,East,93,3.8,3.8,46,0.00,,OVC110,0.00,VWS V14.01,2013-03-09 23:22:00,
2013-03-09 18:27:00,53.2,33.0,30.10,NE,39,3.8,6.2,46,0.00,,OVC110,0.00,VWS V14.01,2013-03-09 23:27:00,
2013-03-09 18:30:00,53.0,31.7,30.08,East,97,2.5,5.0,44,0.00,,SCT120,0.00,VWS V14.01,2013-03-09 23:30:00,
2013-03-09 18:32:00,53.3,33.1,30.10,East,84,1.2,3.8,46,0.00,,OVC110,0.00,VWS V14.01,2013-03-09 23:32:00,
2013-03-09 18:37:00,53.3,33.1,30.10,ENE,59,2.5,3.8,46,0.00,,OVC110,0.00,VWS V14.01,2013-03-09 23:37:00,
2013-03-09 18:42:00,53.2,33.0,30.09,East,101,2.5,5.0,46,0.00,,OVC110,0.00,VWS V14.01,2013-03-09 23:42:00,
2013-03-09 18:45:00,52.9,32.7,30.08,East,88,2.5,8.8,46,0.00,,SCT120,0.00,VWS V14.01,2013-03-09 23:45:00,
2013-03-09 18:47:00,53.2,32.4,30.09,SE,128,2.5,5.0,45,0.00,,OVC110,0.00,VWS V14.01,2013-03-09 23:47:00,
2013-03-09 18:52:00,53.1,32.9,30.09,East,97,3.8,5.0,46,0.00,,OVC110,0.00,VWS V14.01,2013-03-09 23:52:00,
2013-03-09 18:57:00,53.1,32.9,30.09,ESE,110,2.5,5.0,46,0.00,,OVC110,0.00,VWS V14.01,2013-03-09 23:57:00,
2013-03-09 19:00:00,52.8,32.1,30.08,East,94,2.5,8.8,45,0.00,,SCT120,0.00,VWS V14.01,2013-03-10 00:00:00,
2013-03-09 19:02:00,53.0,32.8,30.09,ENE,65,1.2,3.8,46,0.00,,OVC110,0.00,VWS V14.01,2013-03-10 00:02:00,
2013-03-09 19:07:00,52.9,32.7,30.09,East,84,0.0,6.2,46,0.00,,BKN120,0.00,VWS V14.01,2013-03-10 00:07:00,
2013-03-09 19:12:00,52.8,32.1,30.09,SE,126,1.2,6.2,45,0.00,,BKN120,0.00,VWS V14.01,2013-03-10 00:12:00,
2013-03-09 19:15:00,52.8,31.5,30.07,East,83,1.2,7.5,44,0.00,,SCT120,0.00,VWS V14.01,2013-03-10 00:15:00,
2013-03-09 19:17:00,52.6,32.4,30.08,East,86,1.2,2.5,46,0.00,,BKN120,0.00,VWS V14.01,2013-03-10 00:17:00,
2013-03-09 19:22:00,52.6,31.9,30.08,SSE,155,2.5,5.0,45,0.00,,BKN120,0.00,VWS V14.01,2013-03-10 00:22:00,
2013-03-09 19:27:00,53.0,32.2,30.08,ESE,114,0.0,5.0,45,0.00,,BKN120,0.00,VWS V14.01,2013-03-10 00:27:00,
2013-03-09 19:30:00,52.8,32.6,30.07,SE,124,1.2,5.0,46,0.00,,SCT120,0.00,VWS V14.01,2013-03-10 00:30:00,
2013-03-09 19:32:00,53.0,32.2,30.08,NE,56,2.5,2.5,45,0.00,,BKN120,0.00,VWS V14.01,2013-03-10 00:32:00,
2013-03-09 19:37:00,52.9,32.2,30.08,ESE,114,1.2,8.8,45,0.00,,BKN120,0.00,VWS V14.01,2013-03-10 00:37:00,
2013-03-09 19:42:00,53.0,32.8,30.08,ESE,114,1.2,8.8,46,0.00,,BKN120,0.00,VWS V14.01,2013-03-10 00:42:00,
2013-03-09 19:45:00,52.8,32.1,30.06,East,101,1.2,6.2,45,0.00,,SCT120,0.00,VWS V14.01,2013-03-10 00:45:00,
2013-03-09 19:47:00,52.9,31.6,30.08,SE,140,3.8,6.2,44,0.00,,BKN120,0.00,VWS V14.01,2013-03-10 00:47:00,
2013-03-09 19:52:00,52.9,32.2,30.08,East,91,1.2,6.2,45,0.00,,BKN120,0.00,VWS V14.01,2013-03-10 00:52:00,
2013-03-09 19:57:00,52.8,32.1,30.08,East,96,2.5,8.8,45,0.00,,BKN120,0.00,VWS V14.01,2013-03-10 00:57:00,
2013-03-09 20:00:00,53.1,32.3,30.06,East,93,2.5,6.2,45,0.00,,SCT120,0.00,VWS V14.01,2013-03-10 01:00:00,
2013-03-09 20:02:00,52.8,32.1,30.08,East,99,3.8,5.0,45,0.00,,BKN120,0.00,VWS V14.01,2013-03-10 01:02:00,
2013-03-09 20:07:00,52.8,31.5,30.08,ESE,111,1.2,5.0,44,0.00,,BKN120,0.00,VWS V14.01,2013-03-10 01:07:00,
2013-03-09 20:12:00,52.6,31.9,30.07,East,98,0.0,5.0,45,0.00,,BKN120,0.00,VWS V14.01,2013-03-10 01:12:00,
2013-03-09 20:15:00,52.7,32.5,30.06,ENE,71,3.8,6.2,46,0.00,,SCT120,0.00,VWS V14.01,2013-03-10 01:15:00,
2013-03-09 20:17:00,52.8,32.1,30.07,East,91,2.5,3.8,45,0.00,,BKN120,0.00,VWS V14.01,2013-03-10 01:17:00,
2013-03-09 20:22:00,52.8,31.5,30.07,East,99,2.5,5.0,44,0.00,,BKN120,0.00,VWS V14.01,2013-03-10 01:22:00,
2013-03-09 20:27:00,52.8,31.5,30.07,ESE,103,1.2,5.0,44,0.00,,BKN120,0.00,VWS V14.01,2013-03-10 01:27:00,
2013-03-09 20:30:00,52.8,32.6,30.06,SSE,150,1.2,8.8,46,0.00,,SCT120,0.00,VWS V14.01,2013-03-10 01:30:00,
2013-03-09 20:32:00,52.8,32.1,30.07,ESE,108,2.5,3.8,45,0.00,,CLR,0.00,VWS V14.01,2013-03-10 01:32:00,
2013-03-09 20:37:00,52.7,32.0,30.07,SE,131,1.2,3.8,45,0.00,,CLR,0.00,VWS V14.01,2013-03-10 01:37:00,
2013-03-09 20:42:00,52.7,32.0,30.07,ESE,108,2.5,5.0,45,0.00,,CLR,0.00,VWS V14.01,2013-03-10 01:42:00,
2013-03-09 20:45:00,52.8,32.6,30.05,SE,142,1.2,6.2,46,0.00,,SCT120,0.00,VWS V14.01,2013-03-10 01:45:00,
2013-03-09 20:47:00,52.8,32.6,30.06,ESE,109,2.5,5.0,46,0.00,,CLR,0.00,VWS V14.01,2013-03-10 01:47:00,
2013-03-09 20:52:00,52.8,32.1,30.06,SE,125,1.2,6.2,45,0.00,,CLR,0.00,VWS V14.01,2013-03-10 01:52:00,
2013-03-09 20:57:00,53.0,32.2,30.06,SE,127,1.2,6.2,45,0.00,,CLR,0.00,VWS V14.01,2013-03-10 01:57:00,
2013-03-09 21:00:00,53.2,33.0,30.05,East,89,2.5,11.2,46,0.00,,SCT120,0.00,VWS V14.01,2013-03-10 02:00:00,
2013-03-09 21:02:00,53.1,32.3,30.06,SE,132,2.5,3.8,45,0.00,,CLR,0.00,VWS V14.01,2013-03-10 02:02:00,
2013-03-09 21:07:00,52.9,32.7,30.06,SSE,155,0.0,3.8,46,0.00,,CLR,0.00,VWS V14.01,2013-03-10 02:07:00,
2013-03-09 21:12:00,52.8,32.6,30.06,SSE,152,0.0,3.8,46,0.00,,CLR,0.00,VWS V14.01,2013-03-10 02:12:00,
2013-03-09 21:15:00,53.1,32.9,30.04,SE,145,2.5,12.5,46,0.00,,SCT120,0.00,VWS V14.01,2013-03-10 02:15:00,
2013-03-09 21:17:00,52.6,33.0,30.06,SSE,152,2.5,7.5,47,0.00,,CLR,0.00,VWS V14.01,2013-03-10 02:17:00,
2013-03-09 21:22:00,52.6,32.4,30.06,SE,134,3.8,7.5,46,0.00,,CLR,0.00,VWS V14.01,2013-03-10 02:22:00,
2013-03-09 21:27:00,52.8,32.6,30.06,SE,127,1.2,8.8,46,0.00,,CLR,0.00,VWS V14.01,2013-03-10 02:27:00,
2013-03-09 21:30:00,53.2,33.0,30.04,North,4,2.5,8.8,46,0.00,,SCT120,0.00,VWS V14.01,2013-03-10 02:30:00,
2013-03-09 21:32:00,52.8,32.6,30.06,SE,142,3.8,3.8,46,0.00,,FEW100,0.00,VWS V14.01,2013-03-10 02:32:00,
2013-03-09 21:37:00,52.8,32.6,30.05,WSW,249,5.0,5.0,46,0.00,,FEW100,0.00,VWS V14.01,2013-03-10 02:37:00,
2013-03-09 21:42:00,52.8,32.6,30.05,ESE,103,5.0,6.2,46,0.00,,FEW100,0.00,VWS V14.01,2013-03-10 02:42:00,
2013-03-09 21:45:00,53.2,33.0,30.03,SSE,147,3.8,10.0,46,0.00,,SCT120,0.00,VWS V14.01,2013-03-10 02:45:00,
2013-03-09 21:47:00,52.9,32.7,30.05,ESE,115,6.2,7.5,46,0.00,,FEW100,0.00,VWS V14.01,2013-03-10 02:47:00,
2013-03-09 21:52:00,53.0,32.8,30.05,SE,129,3.8,11.2,46,0.00,,FEW100,0.00,VWS V14.01,2013-03-10 02:52:00,
2013-03-09 21:57:00,53.1,32.9,30.04,SE,136,1.2,11.2,46,0.00,,FEW100,0.00,VWS V14.01,2013-03-10 02:57:00,
2013-03-09 22:00:00,52.9,33.2,30.03,ESE,111,1.2,7.5,47,0.00,,SCT120,0.00,VWS V14.01,2013-03-10 03:00:00,
2013-03-09 22:02:00,53.3,33.1,30.04,SE,129,2.5,3.8,46,0.00,,FEW100,0.00,VWS V14.01,2013-03-10 03:02:00,
2013-03-09 22:07:00,53.2,33.0,30.04,SE,124,2.5,12.5,46,0.00,,FEW100,0.00,VWS V14.01,2013-03-10 03:07:00,
2013-03-09 22:12:00,53.1,32.9,30.04,South,179,1.2,12.5,46,0.00,,FEW100,0.00,VWS V14.01,2013-03-10 03:12:00,
2013-03-09 22:15:00,53.1,32.3,30.02,East,79,3.8,6.2,45,0.00,,SCT120,0.00,VWS V14.01,2013-03-10 03:15:00,
2013-03-09 22:17:00,53.1,32.9,30.04,East,96,3.8,8.8,46,0.00,,FEW100,0.00,VWS V14.01,2013-03-10 03:17:00,
2013-03-09 22:22:00,53.1,33.4,30.04,ESE,111,5.0,8.8,47,0.00,,FEW100,0.00,VWS V14.01,2013-03-10 03:22:00,
2013-03-09 22:27:00,53.2,33.0,30.04,ESE,104,2.5,8.8,46,0.00,,FEW100,0.00,VWS V14.01,2013-03-10 03:27:00,
2013-03-09 22:30:00,53.1,32.3,30.02,SSE,151,2.5,12.5,45,0.00,,SCT120,0.00,VWS V14.01,2013-03-10 03:30:00,
2013-03-09 22:32:00,53.1,33.4,30.04,SE,142,3.8,5.0,47,0.00,,BKN100,0.00,VWS V14.01,2013-03-10 03:32:00,
2013-03-09 22:37:00,53.2,33.0,30.04,SSW,198,1.2,6.2,46,0.00,,BKN100,0.00,VWS V14.01,2013-03-10 03:37:00,
2013-03-09 22:42:00,53.2,32.4,30.03,SSW,205,3.8,10.0,45,0.00,,BKN100,0.00,VWS V14.01,2013-03-10 03:42:00,
2013-03-09 22:45:00,52.8,32.6,30.02,SW,218,2.5,7.5,46,0.00,,SCT120,0.00,VWS V14.01,2013-03-10 03:45:00,
2013-03-09 22:47:00,53.3,33.1,30.03,SSE,158,1.2,7.5,46,0.00,,BKN100,0.00,VWS V14.01,2013-03-10 03:47:00,
2013-03-09 22:52:00,53.2,33.0,30.03,East,83,3.8,7.5,46,0.00,,BKN100,0.00,VWS V14.01,2013-03-10 03:52:00,
2013-03-09 22:57:00,52.9,32.7,30.03,WSW,242,5.0,7.5,46,0.00,,BKN100,0.00,VWS V14.01,2013-03-10 03:57:00,
2013-03-09 23:00:00,52.4,33.3,30.02,SE,141,1.2,5.0,48,0.00,,SCT120,0.00,VWS V14.01,2013-03-10 04:00:00,
2013-03-09 23:02:00,53.0,32.8,30.02,ESE,110,3.8,5.0,46,0.00,,BKN100,0.00,VWS V14.01,2013-03-10 04:02:00,
2013-03-09 23:07:00,53.1,32.3,30.02,SSE,156,1.2,6.2,45,0.00,,BKN100,0.00,VWS V14.01,2013-03-10 04:07:00,
2013-03-09 23:12:00,53.1,32.9,30.03,SSE,153,5.0,6.2,46,0.00,,BKN100,0.00,VWS V14.01,2013-03-10 04:12:00,
2013-03-09 23:15:00,52.5,33.4,30.01,ESE,107,3.8,6.2,48,0.00,,SCT120,0.00,VWS V14.01,2013-03-10 04:15:00,
2013-03-09 23:17:00,53.1,32.3,30.02,SSE,155,2.5,3.8,45,0.00,,BKN100,0.00,VWS V14.01,2013-03-10 04:17:00,
2013-03-09 23:22:00,53.0,32.8,30.02,SSE,150,2.5,6.2,46,0.00,,BKN100,0.00,VWS V14.01,2013-03-10 04:22:00,
2013-03-09 23:27:00,53.0,32.8,30.03,SE,127,5.0,12.5,46,0.00,,BKN100,0.00,VWS V14.01,2013-03-10 04:27:00,
2013-03-09 23:30:00,52.7,33.6,30.00,ESE,121,1.2,6.2,48,0.00,,SCT120,0.00,VWS V14.01,2013-03-10 04:30:00,
2013-03-09 23:32:00,53.1,32.9,30.02,SE,128,5.0,7.5,46,0.00,,FEW110,0.00,VWS V14.01,2013-03-10 04:32:00,
2013-03-09 23:37:00,53.0,32.8,30.02,SE,135,1.2,7.5,46,0.00,,FEW110,0.00,VWS V14.01,2013-03-10 04:37:00,
2013-03-09 23:42:00,53.0,33.3,30.02,SSE,152,2.5,7.5,47,0.00,,FEW110,0.00,VWS V14.01,2013-03-10 04:42:00,
2013-03-09 23:45:00,52.4,33.3,30.00,SE,134,1.2,6.2,48,0.00,,SCT120,0.00,VWS V14.01,2013-03-10 04:45:00,
2013-03-09 23:47:00,52.7,33.0,30.02,SSE,152,1.2,3.8,47,0.00,,FEW110,0.00,VWS V14.01,2013-03-10 04:47:00,
2013-03-09 23:52:00,52.5,32.9,30.02,South,183,1.2,3.8,47,0.00,,FEW110,0.00,VWS V14.01,2013-03-10 04:52:00,
2013-03-09 23:57:00,52.5,33.4,30.02,WSW,253,2.5,5.0,48,0.00,,FEW110,0.00,VWS V14.01,2013-03-10 04:57:00,